Estación de Rauco

Ultimos registro cada 15 minutos 80
Estación Fecha / Hora Temperatura Humedad Lluvia Velocidad Dirección Radiación Presion
80 Rauco 07-05-2026 19:45 11,6 70 0 0 258 0 1026,3
79 Rauco 07-05-2026 19:30 11,7 69 0 0,9 195 0 1025,7
78 Rauco 07-05-2026 19:15 11,7 69 0 0,4 263 0 1025,8
77 Rauco 07-05-2026 19:00 11,8 71 0 0,9 250 0 1025,7
76 Rauco 07-05-2026 18:45 11,9 70 0 0 249 0 1025,4
75 Rauco 07-05-2026 18:30 12,1 69 0 0,4 249 0 1025,3
74 Rauco 07-05-2026 18:15 12,3 68 0 0 250 0 1025,6
73 Rauco 07-05-2026 18:00 12,4 68 0 0,4 252 0 1025,8
72 Rauco 07-05-2026 17:45 12,7 67 0 0,9 246 0 1025,7
71 Rauco 07-05-2026 17:30 12,9 66 0 1,3 246 11 1025,4
70 Rauco 07-05-2026 17:15 13,1 64 0 0 20 19 1025,4
69 Rauco 07-05-2026 17:00 13,3 64 0 0 298 21 1025,7
68 Rauco 07-05-2026 16:45 13,6 63 0 0,9 233 39 1025,5
67 Rauco 07-05-2026 16:30 13,9 63 0 0,9 217 53 1025,5
66 Rauco 07-05-2026 16:15 14,3 60 0 0 268 83 1025,4
65 Rauco 07-05-2026 16:00 14,7 60 0 0 259 114 1025,7
64 Rauco 07-05-2026 15:45 15,2 59 0 1,3 242 135 1025,8
63 Rauco 07-05-2026 15:30 15,6 61 0 0,4 260 163 1025,4
62 Rauco 07-05-2026 15:15 15,2 61 0 0 225 469 1025,1
61 Rauco 07-05-2026 15:00 14,9 63 0 0 141 67 1025,2
60 Rauco 07-05-2026 14:45 14,7 65 0 0 269 44 1025,3
59 Rauco 07-05-2026 14:30 14,6 65 0 0 180 49 1025,7
58 Rauco 07-05-2026 14:15 14,4 65 0 0 244 309 1026
57 Rauco 07-05-2026 14:00 14,1 66 0 0,4 278 220 1025,8
56 Rauco 07-05-2026 13:45 13,8 68 0 0 277 213 1025,8
55 Rauco 07-05-2026 13:30 13,4 69 0 0 248 84 1026,4
54 Rauco 07-05-2026 13:15 13,3 69 0 0 175 42 1026,1
53 Rauco 07-05-2026 13:00 13,1 69 0 0 175 39 1026,3
52 Rauco 07-05-2026 12:45 12,7 70 0 0 175 44 1026,6
51 Rauco 07-05-2026 12:30 12,4 74 0 0 175 53 1027
50 Rauco 07-05-2026 12:15 12,7 71 0 0 245 47 1027
49 Rauco 07-05-2026 12:00 12,8 73 0 0,9 230 42 1027,4
48 Rauco 07-05-2026 11:45 12,6 74 0 0 121 49 1027,7
47 Rauco 07-05-2026 11:30 12,2 76 0 0,9 134 53 1027,5
46 Rauco 07-05-2026 11:15 11,9 76 0 1,3 234 74 1027,9
45 Rauco 07-05-2026 11:00 11,7 76 0 0,9 232 366 1027,8
44 Rauco 07-05-2026 10:45 11,6 76 0 0,9 115 350 1027,8
43 Rauco 07-05-2026 10:30 11,1 79 0 1,3 113 258 1027,3
42 Rauco 07-05-2026 10:15 10,6 79 0 0 260 69 1027,6
41 Rauco 07-05-2026 10:00 10,4 79 0 0,4 244 387 1027,6
40 Rauco 07-05-2026 09:45 10,2 81 0 2,2 258 366 1027,9
39 Rauco 07-05-2026 09:30 9,8 83 0 1,3 254 51 1027,6
38 Rauco 07-05-2026 09:15 9,2 85 0 0,9 234 42 1027,4
37 Rauco 07-05-2026 09:00 9,1 86 0 0,4 251 214 1027,4
36 Rauco 07-05-2026 08:45 8,8 89 0 0 206 190 1027,5
35 Rauco 07-05-2026 08:30 7,8 90 0 0 250 114 1027,2
34 Rauco 07-05-2026 08:15 7,4 91 0 0 240 88 1027,2
33 Rauco 07-05-2026 08:00 7,2 89 0 0 175 35 1026,9
32 Rauco 07-05-2026 07:45 7,3 89 0 0 175 19 1026,4
31 Rauco 07-05-2026 07:30 7,6 89 0 0 175 5 1026,2
30 Rauco 07-05-2026 07:15 7,7 88 0 0 175 0 1026,4
29 Rauco 07-05-2026 07:00 7,8 88 0 0 175 0 1026,4
28 Rauco 07-05-2026 06:45 8 87 0 0 175 0 1026,2
27 Rauco 07-05-2026 06:30 8,3 86 0 0 175 0 1026,4
26 Rauco 07-05-2026 06:15 8,8 86 0 0 240 0 1026,1
25 Rauco 07-05-2026 06:00 9,2 85 0 0 251 0 1025,8
24 Rauco 07-05-2026 05:45 9,5 85 0 0 175 0 1025,7
23 Rauco 07-05-2026 05:30 9,7 86 0 0 175 0 1025,4
22 Rauco 07-05-2026 05:15 9,8 86 0 0 175 0 1025,3
21 Rauco 07-05-2026 05:00 9,8 86 0 0 175 0 1025,2
20 Rauco 07-05-2026 04:45 9,8 87 0 0 175 0 1025,1
19 Rauco 07-05-2026 04:30 9,9 87 0 0 175 0 1024,7
18 Rauco 07-05-2026 04:15 9,9 86 0 0 175 0 1024,7
17 Rauco 07-05-2026 04:00 10 86 0 0 175 0 1024,7
16 Rauco 07-05-2026 03:45 10,1 85 0 0 175 0 1024,5
15 Rauco 07-05-2026 03:30 10,1 85 0 0 175 0 1024,5
14 Rauco 07-05-2026 03:15 10,1 86 0 0 175 0 1024,4
13 Rauco 07-05-2026 03:00 10,2 85 0 0 175 0 1024,5
12 Rauco 07-05-2026 02:45 10,3 85 0 0 175 0 1024,6
11 Rauco 07-05-2026 02:30 10,3 85 0 0 175 0 1024,5
10 Rauco 07-05-2026 02:15 10,3 85 0 0 175 0 1024,7
9 Rauco 07-05-2026 02:00 10,4 86 0 0 175 0 1024,3
8 Rauco 07-05-2026 01:45 10,4 85 0 0 175 0 1024,1
7 Rauco 07-05-2026 01:30 10,4 85 0 0 175 0 1023,7
6 Rauco 07-05-2026 01:15 10,6 85 0 0 175 0 1023,4
5 Rauco 07-05-2026 01:00 10,7 84 0 0 249 0 1023,4
4 Rauco 07-05-2026 00:45 10,8 84 0 0 252 0 1023,3
3 Rauco 07-05-2026 00:30 10,8 85 0 0 175 0 1023,4
2 Rauco 07-05-2026 00:15 10,9 85 0 0 175 0 1023,3
1 Rauco 07-05-2026 00:00 11,1 84 0 0 295 0 1023,1